Starlink 5986

operational
NORAD ID: 56452 Int'l Des: 2023-064 Owner: SPXS Country: US Constellation: starlink
LEOCIRCULAR

About Starlink 5986

Description loading...

Live Position

Loading 3D Globe...

Upcoming Passes

Altitude History

Altitude vs Time

uPlot chart will show altitude changes over time

Two-Line Element Set

1 56452U 23064E 25257.31779705 .00000670 00000-0 63944-4 0 9990
2 56452 69.9992 229.2951 0003196 271.4522 88.6271 14.98333383128828
Epoch: Sep 14, 2025 • Age: 24 hours

Current Status

Altitude 579.3 km
Velocity 7.57 km/s
Sub-Earth Point -23.24°S, 110.06°E
Launch Date May 10, 2023
Age 2.3 years
Type internet

Technical Details

Classification Payload
Mass 305.00 kg
Dry Mass 290.00 kg
Total Mass 305.00 kg
Length 0.20 m
Diameter 2.80 m
Span 9.00 m
Shape Box + pan
Manufacturer SPXS
Bus Type Starlink
Phase Status In Orbit
Owner/State SPXS/US

Large Constellations

Loading constellations...